Oakland, MD

12:02 PM EDT on October 17, 2019 (GMT -0400)
Oakland

Weather History for K2G4 - September, 2019

Change the Weather History Date:

Sunday, September 22, 2019

  Actual Average (KMGW) Record (KMGW)
Temperature  
Mean Temperature 69 °F -  
Max Temperature 78 °F 71 °F 91 °F (1965)
Min Temperature 60 °F 52 °F 34 °F (1904)
Cooling Degree Days 4    
Growing Degree Days 19 (Base 50)    
Moisture  
Dew Point 59 °F    
Average Humidity 74    
Maximum Humidity 100    
Minimum Humidity 44    
Precipitation  
Precipitation 0.00 in - - ()
Sea Level Pressure  
Sea Level Pressure 30.23 in    
Wind  
Wind Speed 4 mph ()    
Max Wind Speed 8 mph    
Max Gust Speed -    
Visibility 10.0 miles    
Events      
Averages and records for this station are not official NWS values.
T = Trace of Precipitation, MM = Missing Value Source: Averaged Metar Reports

Daily Weather History Graph

Daily Weather History Graph

Search for Another Location

Airport or City:

Astronomy

Sep. 22, 2019 Rise Set
Actual Time 7:04 AM EDT 7:14 PM EDT
Civil Twilight 6:37 AM EDT 7:41 PM EDT
Nautical Twilight 6:06 AM EDT 8:13 PM EDT
Astronomical Twilight 5:34 AM EDT 8:44 PM EDT
Moon No Moon Rise 3:07 PM EDT (9/22)
Length of Visible Light 13h 03m
Length of Day
12h 10m
Last Quarter, 44% of the Moon is Illuminated
Sep 22
Last Quarter
Sep 28
New
Oct 5
First Quarter
Oct 13
Full
Oct 21
Last Quarter

Hourly Weather History & Observations

Time (EDT) Temp. Dew Point Humidity Pressure Visibility Wind Dir Wind Speed Gust Speed Precip Events Conditions
12:00 AM 62.6 °F 60.8 °F 94% 30.31 in 10.0 mi SSW 3.5 mph - N/A   Clear
12:20 AM 62.6 °F 62.6 °F 100% 30.31 in 10.0 mi SSW 3.5 mph - N/A   Clear
12:40 AM 62.6 °F 62.6 °F 100% 30.30 in 10.0 mi SSW 4.6 mph - N/A   Clear
1:00 AM 62.6 °F 62.6 °F 100% 30.30 in 10.0 mi SW 3.5 mph - N/A   Clear
1:20 AM 62.6 °F 60.8 °F 94% 30.29 in 10.0 mi SSW 3.5 mph - N/A   Clear
1:40 AM 62.6 °F 62.6 °F 100% 30.29 in 10.0 mi SSW 3.5 mph - N/A   Clear
2:00 AM 62.6 °F 62.6 °F 100% 30.29 in 10.0 mi SW 4.6 mph - N/A   Clear
2:20 AM 62.6 °F 62.6 °F 100% 30.29 in 10.0 mi SW 4.6 mph - N/A   Clear
2:40 AM 62.6 °F 62.6 °F 100% 30.29 in 10.0 mi SW 4.6 mph - N/A   Clear
3:00 AM 62.6 °F 62.6 °F 100% 30.28 in 10.0 mi SW 3.5 mph - N/A   Clear
3:20 AM 62.6 °F 62.6 °F 100% 30.28 in 10.0 mi WSW 4.6 mph - N/A   Clear
3:40 AM 62.6 °F 62.6 °F 100% 30.27 in 10.0 mi SW 4.6 mph - N/A   Clear
4:00 AM 62.6 °F 62.6 °F 100% 30.27 in 10.0 mi SW 4.6 mph - N/A   Clear
4:20 AM 62.6 °F 62.6 °F 100% 30.27 in 10.0 mi SW 3.5 mph - N/A   Clear
4:40 AM 62.6 °F 60.8 °F 94% 30.27 in 10.0 mi SW 4.6 mph - N/A   Clear
5:00 AM 62.6 °F 60.8 °F 94% 30.27 in 10.0 mi SW 4.6 mph - N/A   Clear
5:20 AM 60.8 °F 60.8 °F 100% 30.28 in 10.0 mi SW 4.6 mph - N/A   Clear
5:40 AM 60.8 °F 60.8 °F 100% 30.28 in 10.0 mi SW 4.6 mph - N/A   Clear
6:00 AM 60.8 °F 60.8 °F 100% 30.28 in 10.0 mi SW 3.5 mph - N/A   Clear
6:20 AM 60.8 °F 60.8 °F 100% 30.28 in 10.0 mi SW 3.5 mph - N/A   Clear
6:40 AM 60.8 °F 60.8 °F 100% 30.28 in 10.0 mi WSW 3.5 mph - N/A   Clear
7:00 AM 62.6 °F 62.6 °F 100% 30.28 in 10.0 mi WSW 3.5 mph - N/A   Clear
7:20 AM 62.6 °F 62.6 °F 100% 30.28 in 10.0 mi WSW 4.6 mph - N/A   Clear
7:40 AM 62.6 °F 62.6 °F 100% 30.28 in 10.0 mi WSW 4.6 mph - N/A   Clear
8:00 AM 62.6 °F 62.6 °F 100% 30.28 in 10.0 mi SW 4.6 mph - N/A   Clear
8:20 AM 62.6 °F 62.6 °F 100% 30.29 in 10.0 mi SW 4.6 mph - N/A   Clear
8:40 AM 64.4 °F 62.6 °F 94% 30.29 in 10.0 mi SW 3.5 mph - N/A   Clear
9:00 AM 66.2 °F 62.6 °F 88% 30.29 in 10.0 mi SW 4.6 mph - N/A   Clear
9:20 AM 68.0 °F 62.6 °F 83% 30.29 in 10.0 mi SW 3.5 mph - N/A   Clear
9:40 AM 68.0 °F 62.6 °F 83% 30.29 in 10.0 mi SW 5.8 mph - N/A   Clear
10:00 AM 69.8 °F 62.6 °F 78% 30.29 in 10.0 mi SSW 6.9 mph - N/A   Clear
10:20 AM 69.8 °F 62.6 °F 78% 30.29 in 10.0 mi West 3.5 mph - N/A   Clear
10:40 AM 71.6 °F 60.8 °F 69% 30.28 in 10.0 mi WSW 8.1 mph - N/A   Clear
11:00 AM 71.6 °F 60.8 °F 69% 30.27 in 10.0 mi WSW 3.5 mph - N/A   Clear
11:20 AM 73.4 °F 60.8 °F 65% 30.27 in 10.0 mi West 5.8 mph - N/A   Clear
11:40 AM 73.4 °F 59.0 °F 61% 30.27 in 10.0 mi WSW 4.6 mph - N/A   Clear
12:00 PM 75.2 °F 59.0 °F 57% 30.26 in 10.0 mi WSW 4.6 mph - N/A   Clear
12:20 PM 73.4 °F 57.2 °F 57% 30.25 in 10.0 mi West 6.9 mph - N/A   Clear
12:40 PM 77.0 °F 59.0 °F 54% 30.25 in 10.0 mi West 4.6 mph - N/A   Clear
1:00 PM 75.2 °F 55.4 °F 50% 30.24 in 10.0 mi West 4.6 mph - N/A   Clear
1:20 PM 77.0 °F 57.2 °F 50% 30.23 in 10.0 mi West 4.6 mph - N/A   Clear
1:40 PM 75.2 °F 57.2 °F 53% 30.23 in 10.0 mi SW 5.8 mph - N/A   Clear
2:00 PM 77.0 °F 55.4 °F 47% 30.22 in 10.0 mi West 5.8 mph - N/A   Scattered Clouds
2:20 PM 77.0 °F 55.4 °F 47% 30.21 in 10.0 mi West 4.6 mph - N/A   Clear
2:40 PM 77.0 °F 55.4 °F 47% 30.20 in 10.0 mi West 4.6 mph - N/A   Clear
3:20 PM 78.8 °F 57.2 °F 47% 30.19 in 10.0 mi WSW 4.6 mph - N/A   Clear
3:40 PM 78.8 °F 57.2 °F 47% 30.18 in 10.0 mi SW 3.5 mph - N/A   Clear
4:00 PM 78.8 °F 57.2 °F 47% 30.18 in 10.0 mi WSW 8.1 mph - N/A   Clear
4:20 PM 78.8 °F 57.2 °F 47% 30.18 in 10.0 mi West 5.8 mph - N/A   Clear
4:40 PM 78.8 °F 55.4 °F 44% 30.18 in 10.0 mi WSW 4.6 mph - N/A   Clear
5:00 PM 78.8 °F 55.4 °F 44% 30.17 in 10.0 mi WSW 8.1 mph - N/A   Clear
5:20 PM 78.8 °F 55.4 °F 44% 30.17 in 10.0 mi SW 4.6 mph - N/A   Clear
5:40 PM 77.0 °F 55.4 °F 47% 30.16 in 10.0 mi WSW 4.6 mph - N/A   Clear
6:00 PM 77.0 °F 55.4 °F 47% 30.15 in 10.0 mi SW 3.5 mph - N/A   Clear
6:20 PM 75.2 °F 55.4 °F 50% 30.15 in 10.0 mi SW 3.5 mph - N/A   Clear
6:40 PM 73.4 °F 55.4 °F 53% 30.15 in 10.0 mi Calm Calm - N/A   Clear
7:00 PM 71.6 °F 55.4 °F 57% 30.15 in 10.0 mi SW 3.5 mph - N/A   Clear
7:20 PM 71.6 °F 55.4 °F 57% 30.15 in 10.0 mi SW 4.6 mph - N/A   Clear
7:40 PM 69.8 °F 55.4 °F 60% 30.15 in 10.0 mi SW 4.6 mph - N/A   Clear
8:00 PM 69.8 °F 55.4 °F 60% 30.15 in 10.0 mi SW 4.6 mph - N/A   Clear
8:20 PM 69.8 °F 55.4 °F 60% 30.15 in 10.0 mi SW 4.6 mph - N/A   Clear
8:40 PM 69.8 °F 55.4 °F 60% 30.15 in 10.0 mi SW 4.6 mph - N/A   Clear
9:00 PM 69.8 °F 55.4 °F 60% 30.15 in 10.0 mi SW 4.6 mph - N/A   Clear
9:20 PM 69.8 °F 55.4 °F 60% 30.15 in 10.0 mi SW 4.6 mph - N/A   Clear
9:40 PM 68.0 °F 55.4 °F 64% 30.14 in 10.0 mi SW 4.6 mph - N/A   Clear
10:00 PM 68.0 °F 55.4 °F 64% 30.14 in 10.0 mi SSW 4.6 mph - N/A   Clear
10:20 PM 68.0 °F 55.4 °F 64% 30.14 in 10.0 mi SSW 3.5 mph - N/A   Clear
10:40 PM 66.2 °F 55.4 °F 68% 30.14 in 10.0 mi SSW 3.5 mph - N/A   Clear
11:00 PM 66.2 °F 55.4 °F 68% 30.13 in 10.0 mi SSW 4.6 mph - N/A   Clear
11:20 PM 68.0 °F 55.4 °F 64% 30.13 in 10.0 mi SW 4.6 mph - N/A   Clear
11:40 PM 66.2 °F 55.4 °F 68% 30.13 in 10.0 mi SSW 4.6 mph - N/A   Clear